{"data":{"norad_id":61715,"intl_designator":"2024-196J","name":"STARLINK-32459","alt_names":[],"object_type":"PAYLOAD","status":"ACTIVE","operator":null,"country":"US","launch_date":"2024-10-30","launch_site_code":"AFETR","launch_vehicle":null,"mission":null,"orbit_class":"UNKNOWN","rcs_meters":null,"size_class":null,"mass_kg":null,"dimensions":null,"purposes":["comms"],"wikipedia_slug":null,"has_3d_model":false,"image_url":null,"decayed_at":null,"tle_current":{"epoch":"2026-09-21T07:07:51.449664Z","epoch_age_seconds":120027,"freshness":"FRESH","line1":"1 61715U 24196J   26264.29712326  .00001170  00000+0  45756-4 0  9993","line2":"2 61715  53.1601 270.0181 0001107  83.4882 276.6247 15.34394887107148","mean_motion":15.34394887,"eccentricity":0.0001107,"inclination_deg":53.1601,"raan_deg":270.0181,"arg_perigee_deg":83.4882,"mean_anomaly_deg":276.6247,"bstar":4.5756e-5,"rev_number":10714,"period_min":93.8480708063,"perigee_km":461.96115446593,"apogee_km":463.47571985972,"semimajor_km":6840.8554371628,"source":"CELESTRAK","updated_at":"2026-09-22T09:00:49.411357Z"}}}